Regional Weather Roundup
Issued by NWS

Home | Current Version | Previous Version | Graphics & Text | Print | Product List | Glossary On
Versions: 1 2 3 4 5 6 7 8 9 10 11 12 13 14 15 16 17 18 19 20 21 22 23 24 25 26 27 28 29 30 31 32 33 34 35 36 37 38 39 40 41 42 43 44 45 46 47 48 49 50
000
ASUS44 KMEG 240410
RWRTN
TENNESSEE HOURLY STATE WEATHER ROUNDUP
NATIONAL WEATHER SERVICE MEMPHIS TN
1100 PM CDT WED JUL 23 2014

TNZ002-004-019-021-049-052-054-088>092-240500-
WEST TENNESSEE

CITY           SKY/WX    TMP DP  RH WIND       PRES   REMARKS
MEMPHIS INTL   PTCLDY    73  68  84 N7        30.03F
NWS MEMPHIS      N/A     74 N/A N/A MISG        N/A
JACKSON        CLEAR     69  67  93 CALM      30.03S
DYERSBURG      MOCLDY    72  61  68 CALM      30.04S
UNION CITY     CLOUDY    70  70 100 CALM      30.02F
PARIS          CLOUDY    69  66  90 CALM      30.04S
LEXINGTON      CLEAR     72  70  94 N3        30.03R
$$

TNZ008-025-027-028-033-062-065-066-240500-
NORTH MIDDLE TENNESSEE

CITY           SKY/WX    TMP DP  RH WIND       PRES   REMARKS
NASHVILLE      MOCLDY    78  68  71 NE5       30.02R
DICKSON        PTCLDY    73  70  88 N6        30.03R
PORTLAND       CLEAR     73  66  78 CALM      30.01S
CLARKSVILLE    CLEAR     73  67  81 NW3       30.01F
LEBANON        PTCLDY    74  70  87 CALM      30.00S
SMYRNA         MOCLDY    73  70  91 CALM      30.02S
COOKEVILLE     MOCLDY    70  70 100 CALM      30.03S
LIVINGSTON       N/A     68  68 100 CALM      30.04F
GALLATIN       MOCLDY    77  70  79 SE5       30.03R
CROSSVILLE     CLOUDY    73  69  87 CALM      30.07F
$$

TNZ061-075-076-078-094-096-097-240500-
SOUTH MIDDLE TENNESSEE

CITY           SKY/WX    TMP DP  RH WIND       PRES   REMARKS
LEWISBURG      CLOUDY    77  72  84 CALM      30.01S
FAYETTEVILLE   CLEAR     72  72 100 SW7       30.04R
TULLAHOMA      PTCLDY    73  70  88 CALM      30.05S
WINCHESTER     CLEAR     72  70  94 CALM      30.03F
MCMINNVILLE    CLOUDY    72  72 100 W6        30.06S
COLUMBIA       PTCLDY    77  73  88 SW3       30.01S
SHELBYVILLE    CLOUDY    75  72  88 CALM      30.04R
$$

TNZ017-018-042-046-047-240500-
NORTHEAST TENNESSEE

CITY           SKY/WX    TMP DP  RH WIND       PRES   REMARKS
TRI CITIES     MOCLDY    71  67  87 NW3       30.03R
ELIZABETHTON   PTCLDY    70  66  88 CALM      30.03S
$$

TNZ012-013-036-069-073-074-240500-
CENTRAL EAST TENNESSEE

CITY           SKY/WX    TMP DP  RH WIND       PRES   REMARKS
KNOXVILLE      MOCLDY    72  70  93 S5        30.00S
OAK RIDGE      CLOUDY    74  71  91 CALM      30.02S
GATLINBURG     PTCLDY    72  70  94 CALM      30.01S
MORRISTOWN     CLEAR     70  70 100 CALM      30.03S
$$

TNZ083-085-099-240500-
SOUTHEAST TENNESSEE

CITY           SKY/WX    TMP DP  RH WIND       PRES   REMARKS
CHATTANOOGA    MOCLDY    78  72  81 CALM      30.01S
$$

SKY/WX REPORTED AS FAIR MEANS FEW OR NO CLOUDS BELOW
12 THOUSAND FEET.




USA.gov is the U.S. government's official web portal to all federal, state and local government web resources and services.